Temp
15 15 16 17 16 16 16 17 17 17 16 15 16 15 14 14 14 12 11 11 11 10 10 10 9 9 10 9 10 9 9 10 10 10 10 10 10 9 9 9 9 9 9 9
14 15 16 16 15 16 16 17 18 17 17 16 16 15 15 13 14 13 12 12 11 11 11 10 9 9 9 10 10 10 9 9 10 10 10 10 10 10 10 10 10 9 9 9
15 17 16 15 16 16 17 18 17 16 16 17 17 18 17 15 14 13 12 12 12 11 11 11 10 10 11 10 10 10 10 10 10 10 10 10 10 10 10 10 10 9 9 9
15 16 15 15 16 16 17 16 16 16 17 19 17 19 18 17 15 14 13 13 12 12 11 11 11 10 10 11 10 10 10 10 10 11 11 11 10 10 10 10 10 10 9 9
16 15 15 15 16 16 17 16 16 16 18 18 17 19 19 18 17 17 16 15 13 13 12 12 11 11 11 11 11 11 10 10 11 11 11 11 11 10 11 10 10 10 10 10
15 14 14 16 16 16 15 16 16 17 18 20 18 18 20 19 18 16 16 16 15 15 13 12 12 11 11 11 11 11 11 11 11 11 11 11 11 11 11 10 10 10 10 10
15 15 15 14 16 15 15 17 19 20 21 20 17 18 19 18 17 16 16 16 15 15 15 14 13 12 11 11 12 12 12 12 12 12 12 12 12 11 11 10 10 10 10 10
17 18 16 15 15 17 16 17 19 19 21 21 17 19 20 18 18 17 16 15 16 15 15 15 14 13 13 14 13 13 13 13 12 12 12 11 12 11 11 10 10 10 10 10
17 17 16 15 16 16 17 16 18 19 19 19 20 19 19 18 17 17 17 16 16 16 16 15 15 15 14 14 14 14 14 13 13 12 12 12 12 11 11 10 10 10 9 10
16 16 16 15 15 15 16 17 18 18 19 19 21 20 20 19 18 16 16 16 17 17 16 16 16 15 15 15 15 14 14 14 13 13 12 12 12 11 11 11 10 10 10 11
15 15 16 15 15 17 16 16 17 18 19 20 21 21 19 18 18 17 16 16 16 16 16 16 16 15 15 15 15 15 14 14 13 13 13 12 12 11 11 11 11 10 10 10
14 16 16 17 16 16 17 18 18 18 19 19 19 20 18 18 18 18 17 17 16 16 16 16 15 15 15 15 15 15 15 14 14 13 13 12 12 12 12 11 11 11 10 11
14 15 17 17 17 16 16 16 17 18 19 19 20 20 18 18 18 18 18 17 16 16 16 16 16 16 15 15 15 15 15 15 14 13 13 12 12 12 12 11 11 11 11 11
14 16 17 18 18 17 17 17 17 17 19 19 19 20 19 17 18 18 18 18 18 17 17 16 16 16 16 16 15 15 15 15 14 14 13 13 12 12 11 12 11 11 11 12
14 16 15 16 15 16 17 17 17 17 18 19 18 18 18 17 17 18 18 18 18 18 17 17 17 16 16 16 16 15 15 15 14 14 13 13 12 12 12 12 12 11 11 11
14 15 14 15 14 15 16 17 17 17 16 17 17 17 17 17 17 17 17 18 18 18 17 17 17 17 17 16 16 15 15 15 14 14 14 13 13 13 12 12 12 11 11 11
13 14 14 16 14 15 16 16 16 16 16 17 17 17 16 16 16 17 17 17 17 17 18 17 17 17 17 16 16 16 15 15 15 14 14 14 13 13 12 12 12 11 11 11
12 13 13 15 14 16 15 15 15 15 15 15 16 15 16 16 15 15 16 17 17 16 16 17 17 17 17 17 17 16 15 15 14 14 14 13 13 13 12 11 11 12 11 10
11 12 13 14 14 15 15 14 14 14 15 15 14 13 15 15 14 13 15 15 17 17 17 17 17 17 17 16 17 16 16 16 15 15 14 14 13 13 13 12 6 8 10 9
11 11 12 13 14 16 16 14 14 14 14 13 12 12 15 14 14 12 13 13 13 15 15 17 17 17 17 16 16 16 16 16 15 15 15 15 14 13 12 11 8 8 9 9
12 11 12 13 13 14 13 13 14 13 12 13 12 14 14 12 13 13 12 13 13 13 14 14 15 16 16 16 16 16 15 15 15 14 14 13 13 11 11 12 9 7 7 8
11 12 12 12 12 13 12 12 11 10 10 12 12 12 12 13 12 12 12 12 13 13 13 13 13 14 15 16 15 15 15 14 14 13 13 12 12 13 11 12 11 9 8 7
10 10 11 11 11 11 11 10 10 10 10 10 11 11 11 11 11 11 11 12 13 13 13 13 13 13 13 13 13 13 14 14 14 13 12 11 13 12 11 11 11 11 9 7
9 9 9 9 9 9 9 9 9 9 10 10 10 11 10 11 11 10 11 11 11 12 12 13 13 13 12 13 13 13 13 13 13 13 13 13 12 12 11 11 11 10 8 7
8 9 8 8 8 8 9 9 9 9 9 9 9 10 10 10 10 10 10 11 11 11 11 12 12 12 12 12 11 12 12 12 13 13 13 13 13 11 10 10 10 8 8 7
8 7 8 8 7 8 8 7 9 9 9 9 9 9 9 10 10 10 10 10 10 10 10 10 10 10 10 11 11 11 11 12 12 12 13 12 12 11 9 10 10 9 8 7
Height
3180 3183 3182 3182 3182 3182 3182 3181 3179 3178 3175 3173 3174 3173 3173 3171 3173 3176 3176 3176 3177 3179 3182 3185 3185 3188 3189 3191 3193 3195 3196 3197 3199 3200 3201 3202 3204 3205 3206 3206 3205 3204 3203 3201
3180 3178 3180 3181 3181 3181 3181 3179 3177 3177 3173 3172 3172 3170 3170 3168 3169 3172 3174 3175 3177 3178 3181 3182 3184 3185 3187 3190 3192 3193 3195 3197 3198 3200 3202 3203 3204 3205 3205 3205 3205 3204 3203 3201
3176 3177 3177 3178 3180 3180 3179 3178 3177 3177 3173 3170 3169 3167 3166 3165 3165 3168 3170 3173 3176 3176 3178 3180 3182 3183 3185 3187 3189 3192 3194 3195 3197 3199 3201 3203 3204 3204 3205 3205 3204 3204 3202 3199
3172 3174 3174 3176 3177 3179 3177 3176 3177 3175 3174 3170 3170 3167 3166 3164 3162 3162 3165 3168 3172 3174 3175 3177 3180 3181 3183 3185 3188 3189 3191 3194 3195 3197 3200 3202 3203 3204 3204 3204 3203 3203 3201 3198
3170 3169 3171 3172 3174 3176 3177 3175 3177 3175 3172 3170 3168 3166 3162 3163 3162 3161 3160 3164 3167 3170 3172 3173 3176 3179 3181 3184 3185 3187 3189 3191 3194 3196 3198 3200 3201 3202 3203 3203 3202 3201 3200 3197
3166 3164 3167 3169 3170 3174 3174 3175 3175 3173 3170 3164 3166 3169 3160 3162 3163 3161 3159 3159 3162 3165 3169 3171 3174 3176 3178 3181 3183 3185 3186 3189 3192 3194 3196 3198 3200 3201 3201 3201 3201 3200 3198 3196
3163 3163 3164 3165 3168 3169 3172 3173 3168 3165 3159 3161 3166 3166 3162 3161 3160 3158 3158 3157 3159 3161 3164 3167 3170 3172 3174 3177 3180 3182 3184 3187 3190 3192 3194 3196 3198 3199 3200 3200 3200 3199 3198 3196
3159 3158 3159 3162 3163 3167 3169 3170 3166 3163 3159 3159 3163 3161 3158 3158 3156 3154 3155 3155 3156 3158 3161 3164 3167 3170 3171 3174 3177 3179 3182 3185 3188 3191 3193 3195 3196 3197 3197 3198 3198 3198 3197 3195
3157 3157 3157 3158 3161 3165 3166 3167 3167 3164 3161 3162 3156 3159 3156 3157 3155 3154 3154 3153 3153 3156 3159 3162 3164 3167 3170 3172 3175 3177 3180 3183 3185 3188 3190 3192 3194 3195 3196 3196 3196 3196 3196 3194
3156 3157 3155 3155 3156 3159 3161 3164 3165 3163 3161 3159 3153 3155 3155 3156 3156 3154 3155 3153 3153 3155 3158 3161 3164 3166 3168 3171 3174 3176 3178 3181 3184 3186 3188 3190 3192 3193 3193 3194 3194 3194 3194 3192
3155 3156 3154 3154 3154 3154 3158 3159 3161 3160 3158 3156 3153 3150 3154 3156 3154 3154 3155 3155 3156 3157 3159 3161 3163 3165 3168 3170 3172 3174 3176 3178 3181 3183 3186 3188 3189 3190 3191 3192 3192 3192 3191 3190
3150 3152 3150 3151 3150 3152 3152 3153 3155 3157 3156 3156 3156 3153 3152 3154 3154 3154 3154 3154 3155 3156 3158 3159 3161 3163 3165 3167 3169 3171 3173 3175 3178 3181 3183 3184 3186 3187 3188 3189 3188 3188 3188 3187
3148 3149 3147 3147 3149 3150 3150 3152 3153 3153 3152 3150 3151 3149 3150 3152 3153 3153 3153 3154 3155 3155 3156 3157 3158 3160 3162 3165 3166 3168 3170 3173 3174 3177 3179 3181 3183 3185 3185 3186 3186 3186 3186 3185
3146 3145 3143 3139 3140 3141 3144 3148 3149 3150 3149 3148 3149 3148 3151 3150 3151 3151 3151 3152 3152 3153 3154 3155 3156 3158 3160 3161 3163 3165 3168 3170 3172 3174 3176 3178 3181 3183 3184 3184 3184 3183 3183 3182
3144 3142 3142 3141 3140 3141 3142 3142 3145 3146 3146 3145 3147 3149 3149 3149 3149 3149 3149 3149 3150 3151 3152 3153 3154 3155 3157 3159 3160 3162 3163 3166 3169 3171 3173 3176 3178 3180 3180 3180 3180 3180 3180 3179
3143 3141 3140 3139 3138 3138 3139 3140 3142 3144 3145 3146 3148 3149 3147 3147 3146 3146 3145 3145 3146 3146 3149 3151 3152 3153 3154 3155 3157 3158 3160 3163 3165 3167 3169 3171 3173 3175 3174 3175 3174 3173 3172 3172
3141 3139 3139 3134 3136 3137 3137 3137 3139 3141 3143 3144 3146 3145 3146 3144 3143 3142 3142 3141 3141 3141 3142 3145 3147 3149 3150 3152 3153 3154 3156 3158 3160 3162 3164 3166 3168 3169 3170 3170 3168 3165 3163 3163
3139 3139 3138 3131 3135 3134 3132 3133 3137 3139 3141 3141 3142 3143 3142 3141 3140 3138 3137 3138 3138 3138 3138 3139 3141 3143 3145 3146 3147 3149 3150 3152 3155 3158 3159 3162 3165 3167 3166 3165 3165 3153 3154 3154
3137 3137 3134 3133 3134 3130 3132 3133 3135 3136 3139 3139 3139 3139 3138 3138 3137 3134 3134 3134 3134 3134 3134 3134 3136 3137 3138 3139 3141 3143 3145 3147 3149 3151 3152 3152 3152 3147 3147 3145 3107 3119 3142 3145
3134 3133 3134 3132 3129 3123 3128 3128 3131 3133 3135 3134 3134 3134 3134 3135 3138 3132 3132 3132 3131 3130 3129 3130 3130 3132 3133 3134 3135 3137 3139 3140 3141 3142 3142 3142 3142 3139 3140 3144 3116 3116 3135 3135
3127 3129 3128 3126 3127 3128 3125 3126 3129 3133 3134 3130 3130 3130 3131 3134 3133 3131 3131 3131 3130 3129 3127 3127 3126 3127 3128 3130 3131 3132 3134 3136 3137 3138 3140 3141 3143 3141 3136 3128 3113 3114 3126 3127
3127 3125 3123 3124 3124 3125 3123 3126 3129 3126 3125 3126 3127 3127 3128 3128 3128 3129 3130 3130 3129 3128 3127 3126 3124 3124 3124 3125 3127 3129 3130 3132 3135 3135 3136 3137 3137 3133 3128 3120 3118 3119 3120 3124
3126 3125 3123 3124 3122 3120 3120 3121 3122 3122 3123 3124 3124 3125 3125 3126 3126 3126 3127 3128 3127 3126 3125 3125 3124 3123 3123 3122 3122 3122 3124 3126 3126 3128 3131 3131 3131 3126 3122 3116 3118 3119 3117 3123
3119 3120 3121 3122 3121 3119 3119 3120 3120 3120 3120 3120 3120 3121 3121 3122 3124 3123 3124 3124 3123 3122 3121 3121 3120 3120 3120 3120 3120 3120 3121 3123 3123 3123 3122 3121 3119 3118 3117 3115 3115 3115 3117 3121
3117 3116 3116 3117 3118 3118 3117 3118 3117 3117 3117 3116 3117 3117 3116 3117 3118 3119 3119 3119 3119 3119 3117 3116 3116 3116 3116 3116 3117 3118 3118 3118 3118 3116 3114 3115 3117 3113 3114 3114 3113 3113 3115 3119
3112 3113 3113 3113 3112 3112 3112 3113 3112 3113 3114 3114 3114 3114 3112 3111 3111 3113 3114 3115 3116 3115 3114 3113 3113 3113 3113 3112 3111 3112 3113 3113 3112 3110 3109 3108 3107 3110 3112 3112 3112 3112 3113 3115
Wind_Speed
18 15 14 10 8 9 11 12 13 14 8 5 6 9 9 8 12 17 16 16 16 21 22 24 25 24 24 21 19 15 11 10 9 9 10 9 8 5 2 2 4 6 7 11
17 21 14 14 10 11 11 12 11 8 13 7 9 11 11 13 13 15 17 17 17 19 23 25 27 27 25 22 21 18 14 9 9 12 12 10 9 5 2 1 3 7 9 11
23 11 14 15 13 12 11 10 12 15 8 9 15 2 10 4 11 18 18 18 18 18 22 25 27 26 27 25 23 20 16 13 11 12 14 12 9 5 4 3 4 7 9 11
20 22 17 11 13 13 14 7 10 11 8 7 9 10 5 8 5 14 20 22 23 22 19 22 26 27 27 26 24 22 19 18 17 16 15 13 11 8 4 4 5 6 8 11
13 12 21 24 21 10 12 12 10 10 10 12 4 8 4 10 6 5 12 21 25 24 23 22 23 26 27 27 26 25 21 21 20 18 16 13 11 9 6 7 6 8 11 12
17 13 12 16 21 20 11 10 12 10 11 15 5 8 4 7 10 5 9 17 19 24 24 24 23 23 26 28 28 27 24 23 22 19 17 14 12 9 6 7 7 8 11 11
15 19 15 10 14 16 14 13 15 9 8 5 4 10 10 11 13 5 8 12 21 22 24 21 24 25 26 29 30 28 25 26 23 21 19 15 13 10 7 5 6 8 11 11
13 14 20 18 21 18 17 19 17 7 7 7 2 5 10 13 11 5 5 9 15 23 25 25 23 25 27 27 27 27 25 25 24 22 19 18 15 11 7 6 8 9 11 11
8 11 10 13 19 21 19 17 17 16 12 12 6 7 9 7 7 1 3 6 11 21 24 25 25 24 23 23 24 24 25 26 24 23 21 20 16 12 9 9 10 11 12 13
10 12 6 8 13 19 24 14 14 19 12 11 3 8 3 8 7 3 3 3 6 17 23 24 22 22 20 19 20 23 23 25 24 24 23 21 18 14 12 12 13 12 12 13
17 13 6 6 15 16 20 24 19 17 11 11 10 1 3 7 8 2 2 2 8 12 17 20 20 20 20 21 20 21 23 25 26 25 22 23 20 16 14 12 13 13 13 12
16 13 19 15 9 14 13 18 24 21 21 15 14 7 2 5 10 9 2 8 11 13 15 18 22 25 23 22 22 22 21 24 26 26 24 25 23 20 17 14 13 14 15 14
10 12 15 15 17 18 17 19 19 17 15 12 13 6 2 8 9 8 8 7 10 9 10 14 15 17 26 25 23 22 22 22 26 28 27 27 26 23 19 18 16 16 16 16
5 13 16 17 15 15 23 17 18 20 20 18 16 16 3 8 7 10 10 10 10 9 10 14 18 16 17 20 21 20 20 22 24 25 26 27 28 25 23 21 19 19 19 19
5 12 10 15 13 11 15 19 19 20 20 10 1 7 10 11 11 11 11 12 13 14 9 10 13 19 19 21 21 20 18 20 22 24 26 26 28 27 26 23 23 24 23 21
7 10 8 9 9 11 15 16 18 17 12 10 7 9 15 16 16 15 13 11 11 16 12 11 12 12 13 15 20 21 23 19 22 25 25 26 25 26 28 27 28 29 29 26
8 9 10 14 5 7 13 17 17 16 12 9 9 5 15 17 20 19 17 13 11 14 16 12 11 16 15 14 14 14 18 22 24 25 27 26 25 26 27 29 32 36 35 30
7 10 11 16 4 12 4 14 15 13 10 8 4 6 10 15 14 13 15 13 10 10 15 17 15 15 17 19 19 19 19 22 23 25 29 29 27 26 27 26 28 44 38 34
13 13 13 14 22 17 9 9 13 11 7 9 7 6 10 13 6 7 12 11 13 12 14 16 15 17 20 18 18 17 17 19 19 22 25 28 30 34 35 38 51 39 30 27
10 10 13 16 17 18 24 11 14 13 12 5 8 7 9 10 5 9 12 10 12 12 15 19 21 15 16 22 20 18 17 16 17 18 21 25 28 34 26 42 63 24 26 32
12 11 15 18 21 19 11 13 16 12 7 8 7 11 11 5 14 15 14 8 9 4 7 10 11 16 16 22 25 22 20 19 19 18 19 21 20 25 34 34 27 15 20 21
13 14 16 15 12 16 14 13 7 10 7 13 11 12 12 11 11 15 14 10 7 2 4 4 2 6 12 19 22 26 26 21 19 20 20 21 24 23 20 16 12 9 16 17
11 13 11 9 5 12 10 11 12 13 15 13 12 14 15 16 15 17 17 15 15 16 12 13 6 4 2 0 2 7 11 13 17 16 12 18 25 19 11 0 2 6 6 13
14 14 12 12 10 8 10 8 7 9 10 12 12 15 19 20 21 21 22 21 19 19 21 23 19 14 14 13 7 5 4 6 7 10 12 13 16 16 12 6 5 2 6 8
10 11 14 15 9 5 8 9 11 10 10 12 12 13 17 23 22 19 16 16 16 15 13 16 18 18 17 13 7 7 9 11 12 10 12 14 21 8 12 11 8 6 9 10
14 14 13 13 7 15 14 12 16 16 13 11 12 13 13 17 24 21 19 18 18 17 15 14 14 14 14 15 17 19 15 11 10 11 10 12 8 10 14 14 11 9 11 12
Wind_Direction
230 232 231 226 255 281 304 319 330 338 327 327 275 271 249 264 220 201 199 194 194 201 200 196 184 178 168 168 163 154 144 150 161 166 162 158 151 143 129 23 360 2 351 349
231 238 228 242 249 278 291 307 334 355 329 340 312 303 271 238 234 209 204 202 198 197 200 202 195 187 184 178 173 170 168 161 170 179 181 180 169 169 192 342 353 356 359 357
228 234 230 236 252 267 275 300 322 329 323 348 350 252 350 300 219 216 214 205 204 204 200 203 204 200 189 186 184 179 176 177 182 189 190 185 184 206 245 293 330 339 348 359
242 234 245 238 243 250 261 287 318 327 328 352 348 337 350 341 283 228 214 208 204 205 203 205 209 212 203 194 190 187 188 188 187 192 191 191 197 219 250 293 291 316 347 355
237 237 232 239 236 255 261 263 296 312 299 309 105 302 10 350 342 259 222 205 205 206 209 208 207 210 212 202 195 192 193 197 196 191 192 200 206 221 255 287 296 321 344 349
229 253 233 239 238 235 247 270 278 287 280 279 50 334 293 357 337 256 213 203 206 205 207 209 209 210 208 204 199 194 202 198 199 196 195 198 212 224 242 281 319 332 340 342
241 242 235 219 204 223 238 252 266 250 237 318 347 308 293 311 318 260 216 212 205 206 208 204 203 206 207 207 204 203 202 201 199 201 203 204 209 217 232 282 324 330 336 337
231 226 224 232 219 221 235 243 264 284 295 335 283 281 318 317 333 273 237 219 217 210 211 214 216 211 209 209 206 206 207 202 204 207 208 207 208 215 238 272 305 326 332 330
227 242 246 241 228 221 228 237 249 280 265 269 289 313 306 333 345 250 275 261 222 210 210 213 214 216 213 213 213 213 209 208 207 211 213 215 215 221 241 266 292 314 322 326
236 263 243 226 210 217 221 252 230 240 267 271 336 299 270 349 355 288 244 254 204 200 204 208 210 213 210 212 217 217 217 219 219 219 221 220 219 226 242 265 286 301 313 320
223 240 220 214 219 218 216 227 238 268 272 291 281 354 101 354 336 16 213 179 202 202 211 214 216 213 215 213 216 220 219 217 222 226 224 219 221 230 246 260 276 288 298 303
212 236 237 232 223 224 211 229 234 231 247 252 278 311 66 321 333 343 241 192 184 194 205 216 226 224 221 221 224 228 227 225 222 223 223 221 227 236 246 251 266 282 287 291
209 223 240 232 229 235 230 227 223 239 256 250 250 189 236 305 308 314 311 266 232 221 219 221 225 228 223 225 231 236 236 235 229 228 231 229 232 238 244 250 261 273 282 284
224 239 238 256 241 231 218 224 220 222 225 240 231 264 301 295 301 298 283 277 279 264 232 222 217 221 223 223 228 232 237 235 236 231 233 236 236 241 248 254 259 268 275 277
225 253 249 253 267 251 236 228 218 216 239 239 135 250 289 290 313 319 294 260 265 273 258 231 224 221 222 231 233 233 230 234 236 233 234 240 236 242 251 256 260 266 274 275
251 259 269 250 254 235 233 221 211 211 226 232 262 283 280 294 298 308 313 297 266 240 255 247 238 234 226 224 229 233 236 236 236 231 233 240 244 248 252 255 260 263 264 262
245 260 249 241 212 227 226 211 207 209 216 228 256 307 318 297 291 293 294 308 274 240 230 228 246 243 252 249 238 236 227 227 234 233 235 239 242 247 253 258 261 261 260 250
243 253 254 275 238 228 198 195 207 217 226 227 266 317 298 295 306 295 282 278 274 258 229 234 245 242 252 262 246 237 230 226 225 235 241 246 248 252 254 259 264 265 264 250
215 248 260 249 235 246 261 264 231 231 237 243 251 288 289 286 313 299 277 282 274 267 259 257 248 245 250 235 235 242 245 240 234 234 235 235 234 235 244 245 306 272 250 273
237 245 242 245 255 258 248 214 266 227 229 247 241 260 264 278 273 252 284 291 296 292 276 256 254 254 245 228 230 231 232 216 222 227 241 241 242 241 241 294 314 236 253 275
225 239 241 235 242 251 244 237 248 233 249 262 227 233 245 230 236 250 265 276 283 302 290 290 270 254 244 235 233 227 227 231 245 255 257 259 259 281 302 320 324 229 269 270
245 252 245 238 263 245 254 270 223 222 236 252 246 248 248 255 260 252 257 257 265 266 360 31 314 259 248 240 241 239 232 235 248 257 265 277 288 310 312 342 343 250 238 238
251 240 264 243 301 249 268 208 232 245 253 270 272 265 256 252 245 238 243 252 258 281 287 305 305 327 291 303 248 225 238 240 247 254 267 294 293 314 279 239 234 228 188 226
235 237 240 252 246 241 252 251 270 281 291 294 287 269 264 261 261 267 264 263 281 289 278 276 289 286 303 310 309 279 266 308 296 285 285 295 296 297 243 229 250 234 194 221
230 253 247 246 252 258 245 241 252 267 287 303 310 302 279 261 260 268 276 280 279 295 299 285 285 281 298 306 301 318 312 312 310 287 286 291 281 237 217 229 230 192 198 219
234 251 242 230 250 230 232 261 257 260 263 278 291 310 306 279 255 255 264 268 273 280 286 290 299 306 313 309 305 303 300 284 275 274 280 276 235 236 234 240 248 248 224 227